Regional Weather Roundup
Issued by NWS Goodland, KS

Home | Current Version | Previous Version | Graphics & Text | Print | Product List | Glossary On
Versions: 1 2 3 4 5 6 7 8 9 10 11 12 13 14 15 16 17 18 19 20 21 22 23 24 25 26 27 28 29 30 31 32 33 34 35 36 37 38 39 40 41 42 43 44 45 46 47 48 49 50
000
ASUS43 KGLD 301208
RWRGLD

GOODLAND FORECAST AREA HOURLY WEATHER ROUNDUP
NATIONAL WEATHER SERVICE GOODLAND KS
600 AM MDT SAT MAY 30 2015

...OFFICIAL OBSERVATIONS...

CITY           SKY/WX    TMP DP  RH WIND       PRES   REMARKS
GOODLAND KS    CLOUDY    47  44  90 N10       30.31R
HILL CITY KS   CLEAR     47  42  83 NW9       30.28R
IMPERIAL NEB   CLEAR     43  39  86 N9        30.29S
MCCOOK NEB     CLEAR     43  40  89 NW6       30.31R
AKRON CO       CLOUDY    47  44  90 NW7       30.29F
BURLINGTON CO  CLOUDY    48  45  89 N8        30.30R
LIMON CO       CLEAR     40  40 100 CALM      30.30F
$$

...UNOFFICIAL OBSERVATIONS...

CITY           SKY/WX    TMP DP  RH WIND       PRES   REMARKS
COLBY KS       PTCLDY    46  46 100 NW8       30.30S
GOVE KS          N/A     49  32  52 MISG        N/A
NORTON KS      CLEAR     45  39  81 NW13      30.28
SHARON SPRINGS   N/A     49  47  93 MISG        N/A
KIT CARSON CO    N/A     47  43  87 MISG        N/A
$$


USA.gov is the U.S. government's official web portal to all federal, state and local government web resources and services.